TimeMST,TemperatureF,Dew PointF,Humidity,Sea Level PressureIn,VisibilityMPH,Wind Direction,Wind SpeedMPH,Gust SpeedMPH,PrecipitationIn,Events,Conditions,WindDirDegrees,DateUTC
12:53 AM,25.0,10.9,55,30.25,10.0,West,13.8,-,N/A,,Clear,280,2013-01-18 07:53:00
1:53 AM,23.0,10.9,60,30.25,10.0,West,10.4,-,N/A,,Clear,260,2013-01-18 08:53:00
2:53 AM,19.9,9.0,62,30.22,10.0,WSW,6.9,-,N/A,,Clear,240,2013-01-18 09:53:00
3:53 AM,21.0,10.0,63,30.19,10.0,West,5.8,-,N/A,,Clear,260,2013-01-18 10:53:00
4:53 AM,19.9,10.0,65,30.20,10.0,WNW,4.6,-,N/A,,Clear,290,2013-01-18 11:53:00
5:53 AM,19.0,9.0,65,30.22,10.0,West,13.8,-,N/A,,Clear,280,2013-01-18 12:53:00
6:53 AM,19.9,10.0,65,30.22,10.0,West,17.3,-,N/A,,Clear,280,2013-01-18 13:53:00
7:53 AM,21.9,10.9,63,30.24,10.0,West,15.0,-,N/A,,Clear,280,2013-01-18 14:53:00
8:53 AM,30.9,12.9,47,30.25,10.0,WSW,6.9,-,N/A,,Clear,250,2013-01-18 15:53:00
9:53 AM,39.9,12.0,32,30.22,10.0,West,17.3,-,N/A,,Clear,270,2013-01-18 16:53:00
10:53 AM,50.0,10.0,20,30.17,10.0,West,13.8,-,N/A,,Clear,280,2013-01-18 17:53:00
11:53 AM,55.0,9.0,16,30.11,10.0,WSW,8.1,-,N/A,,Clear,240,2013-01-18 18:53:00
12:53 PM,60.1,5.0,11,30.06,10.0,South,5.8,-,N/A,,Clear,190,2013-01-18 19:53:00
1:53 PM,61.0,3.0,10,30.05,10.0,Variable,4.6,-,N/A,,Clear,0,2013-01-18 20:53:00
2:53 PM,61.0,-0.0,9,30.05,10.0,Calm,Calm,-,N/A,,Clear,0,2013-01-18 21:53:00
3:53 PM,61.0,-0.9,8,30.04,10.0,Calm,Calm,-,N/A,,Clear,0,2013-01-18 22:53:00
4:53 PM,57.0,-0.0,10,30.05,10.0,East,3.5,-,N/A,,Clear,90,2013-01-18 23:53:00
5:53 PM,48.9,1.0,14,30.09,10.0,SE,4.6,-,N/A,,Clear,140,2013-01-19 00:53:00
6:53 PM,43.0,1.9,18,30.10,10.0,North,-9999.0,-,N/A,,Clear,0,2013-01-19 01:53:00
7:53 PM,-9999,-9999,N/A,30.06,-9999.0,North,-9999.0,-,N/A,,Unknown,0,2013-01-19 02:53:00
8:53 PM,-9999,-9999,N/A,30.06,-9999.0,North,-9999.0,-,N/A,,Unknown,0,2013-01-19 03:53:00
9:53 PM,-9999,-9999,N/A,30.06,-9999.0,North,-9999.0,-,N/A,,Unknown,0,2013-01-19 04:53:00
10:53 PM,-9999,-9999,N/A,30.06,-9999.0,North,-9999.0,-,N/A,,Unknown,0,2013-01-19 05:53:00
11:53 PM,-9999,-9999,N/A,30.06,-9999.0,North,-9999.0,-,N/A,,Unknown,0,2013-01-19 06:53:00